Find Starlink 37014

NORAD ID: 68216 Int'l Des: 2026-053 Owner: SPXS Country: US Constellation: starlink operational
LEOCIRCULARRETROGRADE

Live Position

Loading 3D Globe...

About Starlink 37014

Description loading...

Upcoming Passes

Passes for default location (London). Set your location on the main map for personalized predictions.

Altitude History

Loading altitude history...

Two-Line Element Set

1 68216U 26053K 26121.90714375 .00014851 00000-0 46147-3 0 9991
2 68216 97.2859 357.6842 0001138 95.6484 264.4888 15.33441794 8378
Epoch: May 1, 2026 • Age: 9 hours

Current Status

Altitude 469.6 km
Velocity 7.63 km/s
Sub-Earth Point -5.94°S, 139.05°W
Launch Date Mar 17, 2026
Age 0.1 years
Type internet

Technical Details

Classification Payload
Mass 575.00 kg
Dry Mass 530.00 kg
Total Mass 575.00 kg
Length 0.30 m
Diameter 4.10 m
Span 29.00 m
Shape Box + pan
Manufacturer SPXS
Bus Type Starlink V2MO
Phase Status In Orbit
Owner/State SPXS/US

Most Searched